User: anonymous   Login
Location: Unspecified
(0.0000°N, 0.0000°E)
Time: 05:42:45
(UTC+00:00)
Language:

AO-109 - Orbit

View from above orbital plane
View from above orbital plane
View from above satellite
View from above satellite

Ground track
Ground track

The orbit data is extracted from the following two-line orbital elements,

1 47311U 21002C   21295.09112702  .00002542  00000-0  11952-3 0  9996
2 47311  60.6849 176.9633 0040096 111.7646 248.7715 15.22199520 42142
Epoch (UTC): 22 October 2021 02:11:13
Eccentricity: 0.0040096
inclination: 60.6849°
perigee height: 471 km
apogee height: 527 km
right ascension of ascending node: 176.9633°
argument of perigee: 111.7646°
revolutions per day: 15.22199520
mean anomaly at epoch: 248.7715°
orbit number at epoch: 4214

The dashed part of the orbit path shows where the satellite is in the earth's shadow,  

DLR